"Pseudo-MPEC" for P10PKUs

Created 2019 Jul 12 13:07:09 UT using Find_Orb

Click here for an explanation of pseudo-MPECs

 
 Astrometry: 
     P10PKUs  C2019 06 10j@,[Q%9lfo4!e5t).AS`oGMY,Sr+$%dx0C7#/`k0AstrometryKZF52
     P10PKUs  C2019 06 10+.hLbkgredacted;Wl)_KilxOK:.58?Y*vhjAy!^JDdf5Qx[57`XF52
     P10PKUs  C2019 07 10]8a.SpxE51)eSt,Rjajclickn+U5t,3Uu$pTa.oJ;eHaTYD?2rK?F51
     P10PKUs  C2019 07 10bg/1rFG%3V7L.x[$HvCJ7x)\=pTCiq0R(\q()v;`PR2_PG=SD`#[F51
     P10PKUs  C2019 07 10^aqV1LSwc,%yW-]Sw^Tcw*1:7/T;DmIgBg??Mxr++U8-,vhere;pF51
     P10PKUs ^C2019 07 11.59160222 35 21.169-15 46 36.98   ~7BJb 21.19GVNEOCP568
     P10PKUs ^C2019 07 11.59278922 35 21.247-15 46 40.31   ~7BJb 21.28GVNEOCP568
     P10PKUs ^C2019 07 11.59397922 35 21.331-15 46 43.63   ~7BJb 21.12GVNEOCP568
     P10PKUs KC2019 07 12sy[g7jBR4i.PlurH7AC59NtIg[Ucv%7P`for$gPsei'o5VB]L3$oH21
     P10PKUs KC2019 07 12#xwAe3P(cVs9RGRyfvZ[explanation1jWIpkM@nEEf]X=?vM9iCH21
     P10PKUs  C2019 07 12.34489622 36 24.21 -16 21 42.6    ~7C9M 21.2 GVNEOCPH01
     P10PKUs  C2019 07 12.35428222 36 24.84 -16 22 09.0    ~7C9M 21.0 GVNEOCPH01
     P10PKUs  C2019 07 12.36726522 36 25.70 -16 22 45.2    ~7C9M 20.7 GVNEOCPH01
     P10PKUs  C2019 07 12.37224722 36 26.04 -16 22 59.1    ~7C9M 20.8 GVNEOCPH01

Station data:
(568) Mauna Kea  (N19.826116 W155.472200)  US/Hawaii.
(F51) Pan-STARRS 1, Haleakala  (N20.707235 W156.255910)  US/Hawaii.
   Observers N. Primak, A. Schultz, S. Watters, J. Thiel, T. Goggia. Measurer
   PS1 Science Consortium. 1.8-m Ritchey-Chrétien + CCD.
(F52) Pan-STARRS 2, Haleakala  (N20.707384 W156.255910)  US/Hawaii. 1.8-m
   Ritchey-Chrétien + CCD.
(H01) Magdalena Ridge Observatory, Socorro  (N33.984833 W107.189333)  US/New
   Mexico.  Observers W. H. Ryan, E. V. Ryan. Measurer W. H. Ryan. 2.4-m
   f/8.9 reflector + CCD.
(H21) Astronomical Research Observatory, Westfield  (N39.483057 W87.968270)
   US/Illinois. 0.76-m f/3.0 astrograph + CCD.

Orbital elements:  P10PKUs
   Perihelion 2019 Jun 2.991322 +/- 0.00226 TT = 23:47:30 (JD 2458637.491322)
Epoch 2019 Jul 12.0 TT = JDT 2458676.5   Earth MOID: 0.1081   Ma: 0.1000
M  12.21635888 +/- 0.027            (J2000 ecliptic)          AutoNEOCP
n   0.31317028 +/- 0.00069          Peri.  147.84474 +/- 0.0006
a   2.14757835 +/- 0.00315          Node   110.14349 +/- 0.007
e   0.4899225 +/- 0.0007            Incl.   10.78290 +/- 0.010
P   3.15                   H 22.9   G  0.15   U  7.9  
q 1.09543135 +/- 0.000106    Q 3.19972535 +/- 0.00618
From 14 observations 2019 June 10-July 12; mean residual 0".15
Residuals in arcseconds: 
190610 F52  .16+  .14-    190711 568  .07-  .01-    190712 H01  .18-  .15+    
190610 F52  .16-  .14+    190711 568  .10-  .02-    190712 H01  .16-  .01-    
190710 F51  .10+  .04-    190711 568  .05-  .01-    190712 H01  .19-  .04+    
190710 F51  .03-  .02+    190712 H21  .00   .25-    190712 H01  .03-  .04+    
190710 F51  .01+  .03+    190712 H21  .53+  .09+    

Ephemerides (geocentric):
Date (UTC) HH   RA              Dec         delta   r     elong  mag " sig PA
---- -- -- --  -------------   -----------  ------ ------ -----  --- ---- ---
2019 07 12 13  22 36 38.502   -16 30 17.28  .22277 1.1837 134.6 21.5 .150  65
2019 07 12 14  22 36 41.755   -16 32 12.09  .22289 1.1839 134.7 21.5 .157  65
2019 07 12 15  22 36 44.998   -16 34 06.79  .22300 1.1841 134.7 21.5 .165  65
2019 07 12 16  22 36 48.231   -16 36 01.41  .22312 1.1843 134.7 21.5 .172  64
2019 07 12 17  22 36 51.453   -16 37 55.93  .22324 1.1844 134.8 21.5 .180  64
2019 07 12 18  22 36 54.665   -16 39 50.35  .22336 1.1846 134.8 21.5 .188  63
2019 07 12 19  22 36 57.867   -16 41 44.68  .22348 1.1848 134.8 21.5 .196  63
2019 07 12 20  22 37 01.059   -16 43 38.91  .22360 1.1850 134.9 21.5 .203  63
2019 07 12 21  22 37 04.241   -16 45 33.05  .22372 1.1851 134.9 21.5 .211  63
2019 07 12 22  22 37 07.412   -16 47 27.09  .22384 1.1853 134.9 21.5 .219  62
2019 07 12 23  22 37 10.573   -16 49 21.04  .22395 1.1855 135.0 21.5 .227  62
2019 07 13 00  22 37 13.724   -16 51 14.89  .22407 1.1857 135.0 21.5 .234  62
2019 07 13 01  22 37 16.865   -16 53 08.65  .22419 1.1859 135.0 21.5 .242  62
2019 07 13 02  22 37 19.995   -16 55 02.31  .22431 1.1860 135.1 21.5 .250  62
2019 07 13 03  22 37 23.115   -16 56 55.87  .22443 1.1862 135.1 21.5 .258  61
2019 07 13 04  22 37 26.225   -16 58 49.34  .22455 1.1864 135.1 21.5 .266  61
2019 07 13 05  22 37 29.325   -17 00 42.71  .22467 1.1866 135.2 21.5 .274  61
2019 07 13 06  22 37 32.415   -17 02 35.99  .22479 1.1867 135.2 21.5 .282  61
2019 07 13 07  22 37 35.495   -17 04 29.17  .22492 1.1869 135.3 21.5 .290  61
2019 07 13 08  22 37 38.564   -17 06 22.26  .22504 1.1871 135.3 21.5 .298  61
2019 07 13 09  22 37 41.623   -17 08 15.25  .22516 1.1873 135.3 21.5 .306  61
2019 07 13 10  22 37 44.673   -17 10 08.14  .22528 1.1874 135.4 21.5 .314  61
2019 07 13 11  22 37 47.712   -17 12 00.94  .22540 1.1876 135.4 21.5 .322  60
2019 07 13 12  22 37 50.740   -17 13 53.64  .22552 1.1878 135.4 21.5 .330  60
2019 07 13 13  22 37 53.759   -17 15 46.25  .22564 1.1880 135.5 21.5 .338  60
2019 07 13 14  22 37 56.768   -17 17 38.76  .22576 1.1881 135.5 21.5 .347  60
2019 07 13 15  22 37 59.766   -17 19 31.17  .22588 1.1883 135.5 21.5 .355  60
2019 07 13 16  22 38 02.755   -17 21 23.49  .22601 1.1885 135.6 21.5 .363  60
2019 07 13 17  22 38 05.733   -17 23 15.71  .22613 1.1887 135.6 21.5 .371  60
2019 07 13 18  22 38 08.701   -17 25 07.83  .22625 1.1889 135.6 21.5 .379  60
2019 07 13 19  22 38 11.659   -17 26 59.86  .22637 1.1890 135.7 21.5 .388  60
2019 07 13 20  22 38 14.607   -17 28 51.79  .22649 1.1892 135.7 21.5 .396  60
2019 07 13 21  22 38 17.545   -17 30 43.62  .22662 1.1894 135.7 21.5 .404  60
2019 07 13 22  22 38 20.473   -17 32 35.36  .22674 1.1896 135.8 21.5 .412  60
2019 07 13 23  22 38 23.391   -17 34 27.00  .22686 1.1898 135.8 21.5 .421  60
2019 07 14 00  22 38 26.299   -17 36 18.55  .22699 1.1899 135.8 21.5 .429  59
2019 07 14 01  22 38 29.197   -17 38 10.00  .22711 1.1901 135.9 21.5 .437  59
2019 07 14 02  22 38 32.084   -17 40 01.35  .22723 1.1903 135.9 21.5 .446  59
2019 07 14 03  22 38 34.962   -17 41 52.61  .22735 1.1905 135.9 21.5 .454  59
2019 07 14 04  22 38 37.830   -17 43 43.76  .22748 1.1907 136.0 21.5 .463  59
2019 07 14 05  22 38 40.687   -17 45 34.82  .22760 1.1908 136.0 21.5 .471  59
2019 07 14 06  22 38 43.535   -17 47 25.79  .22773 1.1910 136.1 21.5 .480  59
2019 07 14 07  22 38 46.373   -17 49 16.66  .22785 1.1912 136.1 21.5 .488  59
2019 07 14 08  22 38 49.200   -17 51 07.43  .22797 1.1914 136.1 21.6 .497  59
2019 07 14 09  22 38 52.018   -17 52 58.10  .22810 1.1916 136.2 21.6 .505  59
2019 07 14 10  22 38 54.825   -17 54 48.68  .22822 1.1917 136.2 21.6 .514  59
2019 07 14 11  22 38 57.623   -17 56 39.16  .22835 1.1919 136.2 21.6 .522  59
2019 07 14 12  22 39 00.411   -17 58 29.54  .22847 1.1921 136.3 21.6 .531  59